Showing default

ION SCV-019, 68435

Orbit data source: Space-Track

ION SCV-019, 68435 is a payload satellite owned by D-ORBIT (IT) in SSO that was launched on Mon, 30 Mar 2026 UTC via an FALCON 9 launch vehicle from the Air Force Western Test Range (AFWTR). Payload-class satellites include a variety of spacecraft equipped with specific instruments for various scientific and technological missions. These include communications satellites like Starlink; space stations such as the ISS; scientific satellites like the Hubble; Earth observation satellites from companies like Planet Labs, Umbra, and HawkEye 360; GPS; miniature CubeSats for education and research; and military/defense satellites.

Loading next visibility...
Identifier
68435, 2026-067V
Orbit
SSO
Country
Flag of ITIT
Related business
Manufacturer
D-ORBIT
Mission
Operational spacecraft
Bus & Motor
ION-SC, PM200
Mass
220 kg wet, 150 kg dry
Launch date (UTC)
2026-03-30 (1 month ago)
Launch vehicle
FALCON 9
Launch site
Air Force Western Test Range (AFWTR)
Object type
Payload
Rocket body
Debris
Shape & HBR
Unknown shape, 14.5 m
Radar Cross Section
RCS unknown

Expand to show TLE details & history
Last TLE update: 8 hours ago

TLE from 8 hours ago
0 ION SCV-019
1 68435U 26067V   26127.14962501  .00002815  00000-0  14281-3 0  9998
2 68435  97.4528  86.2090 0002867 149.7161 210.4239 15.17738772  5712
Epoch: 2026-05-07T03:35Z
TLE epoch observation values (Epoch: 2026-05-07T03:35:27.600Z)
Latitude
-0.00004°
Longitude
167.3441°
Altitude
517.466 km
Speed
7.604 km/s
True Right ascension
05h 44m 50s
True Declination
0° 00' 00"
Sunlit
Object was in daylight at epoch
Visualization orbit readout
Latitude
Unknown
Longitude
Unknown
Altitude
Unknown
Speed
Unknown
Apparent Right ascension
Unknown
Apparent Declination
Unknown
Sunlit
N/A
Visualization observer readout
Local Sidereal Time
20:04:04
Azimuth
Unknown
Elevation
Unknown
Doppler factor
Unknown
Orbital elements
Apogee altitude
511.622 km
Perigee altitude
507.673 km
Semi-major axis
6,887.784 km
Eccentricity
0.00029
Inclination
97.4528°
RAAN
86.209°
Arg. of periapsis
149.7161°
True anomaly
210.40727°
Mean anomaly
210.4239°
Eccentric anomaly
210.41558°
Mean motion
3.79685 °/min
Orbital period
94.82 mins
BSTAR
0.00014281
Loading maneuver chart data...
Computing Atmospheric mass density...
Loading historical data...
Loading historical data...
Loading historical data...
Loading historical data...
Loading historical data...
Loading historical data...
Loading historical data...

Documentation

Showing up to 5 results
|